Temperature
20 19 19 19 19 19 19 19 18 18 18 18 18 18 18 19 19 18 18 18 18 18 18 18 18 18 18 18 18 19 19 19 18 18 18 18 18 18 18 18 18 17 18
20 19 19 19 19 19 19 19 19 18 18 18 18 18 18 18 18 18 18 18 18 18 18 18 18 18 18 18 18 18 18 18 18 18 18 18 18 18 18 18 17 17 18
19 19 19 19 19 19 19 19 18 18 18 18 18 18 18 18 18 18 18 18 18 18 18 18 18 18 18 18 18 18 18 18 18 18 18 17 17 18 18 18 18 17 17
19 19 19 19 19 19 19 19 18 18 18 18 18 18 18 18 18 18 18 18 18 18 18 18 18 18 18 18 18 18 18 18 18 18 17 17 17 17 17 17 17 17 17
19 19 19 19 19 19 19 18 18 18 18 18 18 18 18 18 18 18 18 18 18 18 18 18 18 18 18 18 18 18 18 18 18 17 17 17 17 17 17 17 17 17 17
19 19 18 19 19 18 18 18 18 18 18 18 18 18 18 18 18 18 18 18 18 18 18 18 18 18 18 18 18 18 18 18 17 17 17 17 17 17 17 17 17 17 17
19 19 18 19 18 18 18 18 18 18 18 18 18 18 18 18 18 18 18 18 18 18 18 18 18 18 18 18 18 18 18 18 17 17 17 17 17 17 17 17 17 17 17
19 19 18 18 18 18 18 18 18 18 18 18 18 18 18 18 18 18 18 18 18 18 18 18 18 18 18 18 18 18 18 18 17 17 17 17 17 17 17 17 17 17 17
19 19 18 18 18 18 18 18 18 18 18 18 18 18 18 18 18 18 18 18 18 18 18 18 18 18 18 18 18 18 18 18 17 17 17 17 17 17 17 17 17 17 17
19 18 18 18 18 18 18 18 18 18 18 18 18 18 18 18 18 18 18 18 18 18 18 18 18 18 18 18 18 18 18 17 18 17 17 17 17 17 17 17 17 17 17
18 18 18 18 18 18 18 18 18 18 18 18 17 18 17 17 17 17 17 18 18 18 18 18 18 18 18 18 18 18 17 17 18 18 17 17 17 17 17 17 17 17 17
18 18 18 18 17 18 18 17 17 17 17 17 17 17 17 17 17 17 17 18 18 18 18 18 18 18 18 17 18 17 17 17 17 17 17 17 17 17 17 17 17 17 17
18 18 18 18 18 18 18 18 17 17 17 17 17 17 17 17 17 17 17 17 18 18 17 17 17 17 17 18 17 17 17 18 18 18 17 17 17 17 17 17 17 17 17
18 18 18 18 18 18 18 17 17 17 17 17 17 17 17 17 17 17 17 17 17 17 17 17 17 17 17 17 17 17 17 17 17 17 17 17 17 17 17 17 17 17 17
18 18 18 18 18 18 17 17 17 17 17 17 17 17 17 17 17 17 17 17 17 17 17 17 18 17 17 17 18 17 17 17 17 17 17 17 17 17 17 17 17 17 17
18 18 18 18 18 18 18 18 17 17 17 17 17 17 17 17 17 17 17 17 17 17 17 18 18 17 17 17 17 17 17 17 17 17 17 17 17 17 17 17 17 17 17
18 18 18 18 18 18 17 17 17 17 17 17 17 17 17 17 17 17 17 17 17 17 17 18 18 17 17 17 17 17 17 17 17 17 17 17 17 17 17 17 17 17 17
19 18 18 18 18 18 18 18 17 17 17 17 17 17 17 17 17 17 17 17 17 17 17 17 18 17 17 17 17 17 17 17 17 17 17 17 17 17 17 17 17 17 17
19 18 18 18 18 18 18 18 17 17 17 17 17 17 17 17 17 17 17 17 17 17 17 17 17 17 17 17 17 17 17 17 17 17 17 17 17 17 17 17 17 17 17
19 19 18 18 18 18 18 18 17 17 17 17 17 17 17 17 17 17 17 17 17 17 17 17 17 17 17 17 18 17 17 17 17 17 17 17 17 17 17 16 16 17 17
19 19 19 18 18 18 18 18 17 17 17 17 17 17 17 17 17 17 17 17 17 17 17 17 17 17 17 17 17 17 17 17 17 17 17 17 17 17 17 17 16 16 17
19 19 19 19 18 18 18 18 17 17 17 17 17 17 17 17 17 17 17 17 17 17 17 17 17 17 17 17 17 18 18 18 17 17 17 17 17 17 17 17 17 17 16
19 19 19 19 19 18 18 18 17 17 17 17 17 17 17 17 17 17 17 17 17 17 17 17 17 17 17 17 17 17 18 18 18 17 17 17 17 17 17 17 16 16 16
20 19 19 19 19 19 18 18 18 18 18 18 17 17 17 17 17 17 17 17 17 17 17 17 17 17 17 17 17 17 17 17 17 17 17 17 17 17 17 17 17 17 17
20 19 19 19 19 19 18 18 18 18 18 18 17 17 17 17 17 17 17 17 17 17 17 17 17 17 17 17 17 17 17 17 17 18 18 17 17 17 17 17 17 17 16
20 19 19 19 19 19 18 18 18 18 18 18 18 18 17 17 17 17 17 17 17 17 17 17 17 17 17 17 17 17 17 17 17 17 17 17 17 17 17 17 17 17 16
Wind_Speed
4 5 9 6 6 7 8 9 11 10 10 11 11 12 12 13 14 15 15 16 16 17 17 17 17 17 17 16 16 15 15 14 14 14 13 13 13 13 12 12 12 13 14
4 6 8 6 6 7 9 10 11 10 10 10 10 10 11 12 13 13 14 14 15 16 17 17 16 17 16 16 15 15 14 14 14 13 13 13 13 12 11 10 8 12 13
5 6 7 7 7 7 9 10 10 10 10 10 10 10 11 11 11 12 13 14 15 15 15 16 16 16 16 15 15 14 14 13 12 12 12 11 12 12 11 11 12 13 13
5 6 7 8 8 9 10 10 10 10 10 10 10 10 10 10 10 10 12 13 14 15 15 16 16 16 15 15 14 14 13 12 11 11 9 9 11 12 11 12 12 12 12
6 6 9 10 9 9 10 10 10 10 9 9 9 9 9 10 10 10 11 12 13 14 15 15 15 15 15 15 14 13 12 11 11 9 7 8 9 12 11 12 12 11 11
6 7 10 10 9 9 9 9 9 9 9 9 9 9 9 9 9 10 10 11 12 14 14 14 14 14 14 13 13 12 11 11 11 8 7 8 10 11 11 11 12 11 11
6 8 11 11 10 9 9 9 8 8 8 8 9 9 8 9 9 9 10 10 11 12 13 14 14 14 14 13 12 12 11 10 8 7 6 7 9 12 11 11 11 11 10
6 7 10 11 9 8 9 9 8 7 8 8 8 8 8 8 9 9 9 9 10 11 12 12 13 13 13 12 12 11 11 9 8 7 7 7 10 11 11 10 11 10 10
6 6 7 8 9 9 9 8 8 7 7 8 8 8 7 7 8 9 9 9 10 11 10 11 12 12 11 11 11 11 10 8 6 6 7 7 11 10 10 11 10 10 10
6 6 6 6 6 6 8 8 7 7 7 7 7 7 7 7 8 9 9 9 9 10 10 10 11 11 11 11 10 11 11 10 6 7 6 9 12 10 10 10 10 10 10
5 5 5 5 5 5 6 7 7 7 7 8 7 7 6 6 7 8 8 9 10 10 10 9 10 10 11 12 11 11 11 6 6 5 6 10 11 11 10 10 10 10 9
5 4 4 4 4 4 4 5 5 5 6 5 6 6 6 5 5 6 9 9 10 10 10 9 8 10 10 9 11 12 7 6 6 5 7 11 11 10 10 10 10 10 10
4 4 4 4 3 3 3 4 4 4 4 5 5 5 5 5 5 5 6 7 8 9 8 9 9 7 6 5 5 6 5 4 4 4 7 11 11 10 9 10 10 10 9
4 4 3 3 3 3 3 3 3 4 3 4 4 4 4 3 3 4 3 5 5 5 6 6 5 5 5 5 5 5 5 4 4 4 6 10 10 9 9 10 10 10 9
4 3 3 3 3 3 2 2 3 3 3 4 4 4 4 3 3 3 3 4 4 5 5 5 4 5 4 4 4 5 5 4 4 4 6 10 9 9 9 10 10 10 10
4 3 3 2 3 3 3 2 2 3 3 3 3 4 3 3 3 3 3 3 3 4 4 4 4 5 4 4 4 4 4 4 4 4 5 8 10 10 10 10 10 10 11
4 3 3 3 3 3 2 2 2 3 3 3 3 4 3 3 3 2 2 3 3 4 4 4 4 4 4 4 4 4 4 4 4 4 4 5 8 11 11 10 10 10 10
4 4 3 2 3 3 2 2 2 2 3 3 3 4 3 3 3 3 2 2 3 3 3 3 3 3 3 3 3 2 3 3 4 4 4 5 5 6 10 12 11 11 11
5 4 4 3 3 3 3 3 2 2 2 2 3 3 3 3 3 2 2 2 3 3 3 2 3 2 3 2 2 3 2 3 3 4 4 4 5 5 5 10 12 11 11
5 4 4 4 3 3 3 3 2 2 2 2 2 2 3 3 3 2 2 2 2 2 2 2 3 2 1 2 1 2 1 1 2 3 3 4 4 5 6 6 8 10 12
6 5 5 5 5 4 3 3 3 3 2 2 2 3 3 3 3 2 2 3 2 2 2 3 2 3 2 1 1 1 1 2 2 2 3 3 4 5 5 5 5 6 7
7 7 6 6 6 5 4 3 2 2 2 2 2 3 2 3 3 2 2 2 2 2 2 2 2 1 1 1 2 2 2 2 2 3 3 4 3 4 5 6 5 5 6
8 8 7 7 7 6 5 4 3 3 2 2 2 2 2 3 3 2 2 1 1 2 2 2 2 3 1 1 1 2 2 1 1 2 3 3 3 3 4 5 5 6 6
8 8 8 8 7 6 6 5 5 4 3 2 2 2 3 3 3 2 2 1 1 1 1 2 2 2 2 2 2 2 2 2 2 1 3 3 4 4 4 4 5 5 6
7 7 8 8 7 6 6 6 5 4 3 3 3 3 2 2 2 2 2 2 1 1 1 1 1 2 2 2 2 2 2 2 3 3 2 2 2 3 4 4 4 4 5
7 7 7 7 7 6 6 6 6 5 4 3 3 3 3 3 2 3 3 2 2 2 2 2 2 3 2 2 3 2 3 2 3 3 3 3 3 2 3 3 4 4 5
Wind_Direction
56 71 97 114 119 125 127 129 130 131 131 130 130 132 136 138 140 140 141 142 142 142 142 143 143 141 139 139 139 139 138 137 135 134 133 130 129 128 127 131 134 121 120
72 87 107 119 123 127 129 128 128 130 130 128 128 131 136 137 139 143 144 145 143 144 146 149 147 143 142 143 143 143 141 138 137 138 139 135 131 130 130 128 118 118 126
82 97 112 111 118 123 126 127 126 124 124 128 130 132 135 136 140 146 148 148 145 147 150 152 148 145 145 145 144 143 141 139 140 147 158 143 133 134 133 127 120 124 128
84 94 98 107 116 118 120 122 121 119 121 126 130 132 133 135 136 139 147 148 148 149 150 149 147 149 149 147 145 144 143 145 151 169 161 139 137 135 140 136 132 133 132
85 95 100 106 113 116 119 121 120 121 121 125 131 135 134 133 136 139 143 147 148 149 149 150 150 150 148 147 147 145 147 153 168 179 143 137 132 137 142 142 138 137 136
92 100 104 108 111 112 115 117 120 120 120 124 128 130 129 131 136 138 141 146 151 154 153 154 153 150 150 150 151 151 153 164 182 155 144 144 137 141 144 144 144 144 144
95 98 105 108 109 109 112 113 116 121 123 126 125 126 127 130 134 137 143 150 155 157 157 156 156 156 156 155 157 158 162 178 172 149 148 144 135 144 147 147 147 148 149
100 100 105 117 112 112 118 118 117 115 120 126 126 126 128 133 136 139 142 149 153 156 158 158 159 160 161 160 162 163 167 188 167 151 149 140 135 148 150 151 151 153 155
96 95 103 113 119 123 123 121 124 123 123 128 129 130 130 133 135 141 143 147 150 153 158 159 161 163 165 166 169 170 173 197 180 149 150 142 143 155 158 161 159 160 162
88 87 95 100 108 119 125 125 126 129 131 131 131 131 134 139 139 144 147 149 150 155 160 161 165 166 168 172 174 176 179 198 172 153 150 141 151 164 168 168 166 167 169
83 83 93 98 102 111 120 127 135 134 137 145 142 140 150 144 141 146 135 144 155 160 162 165 167 169 176 177 178 179 185 192 162 154 149 140 163 175 178 177 174 173 172
88 88 92 90 96 103 112 118 128 129 132 140 137 139 138 131 132 127 124 141 152 160 165 166 169 178 193 176 173 181 182 175 166 161 148 153 172 178 180 181 178 178 179
107 98 98 95 97 94 102 115 121 124 128 134 133 130 129 137 136 132 136 142 149 162 168 166 178 177 176 167 171 176 166 172 166 159 151 160 174 182 185 186 184 184 187
115 104 93 93 84 79 81 109 127 129 131 125 128 134 134 132 128 128 138 141 154 161 162 168 167 166 167 165 167 165 167 171 159 152 148 161 177 187 194 194 191 191 192
119 113 101 99 94 86 88 121 122 126 130 130 137 137 139 139 139 141 137 146 156 152 158 165 164 158 158 155 161 162 161 157 161 170 156 167 182 194 205 202 198 200 199
137 130 121 117 110 103 106 113 120 132 129 129 135 133 147 147 145 150 147 147 149 153 152 159 156 159 158 153 163 164 168 169 170 182 179 172 187 198 205 206 205 205 204
151 144 144 141 123 124 124 133 132 134 127 132 129 139 156 158 147 152 148 149 145 152 154 160 154 152 155 156 160 168 174 182 181 187 196 190 183 190 200 204 207 208 205
160 158 162 155 144 143 138 144 138 136 131 137 139 144 149 152 157 166 154 145 149 159 164 157 165 154 155 161 157 165 167 176 186 194 197 193 190 189 192 200 206 208 209
173 169 167 164 154 154 149 152 145 137 142 145 146 142 141 151 154 163 143 129 160 161 169 174 136 167 159 154 163 162 182 191 191 189 194 199 196 204 201 187 199 205 208
179 177 173 168 162 165 159 158 156 144 150 150 148 131 136 141 138 150 153 137 163 155 150 143 135 153 172 170 162 132 185 204 204 190 207 197 199 206 208 201 199 200 204
182 183 184 178 169 178 177 180 168 165 166 149 151 137 139 130 127 145 136 133 164 154 157 155 153 159 172 157 174 187 197 212 209 208 214 208 202 204 206 211 217 214 199
188 191 189 187 180 186 179 178 172 166 170 153 146 135 146 139 149 152 142 165 166 154 166 165 173 214 200 195 234 228 223 201 207 207 204 209 216 205 205 210 212 213 221
193 195 196 193 188 193 185 178 168 165 187 168 161 150 152 157 154 134 146 164 162 188 173 183 195 206 226 230 244 261 272 253 211 180 205 210 211 213 215 208 211 213 215
197 193 195 190 190 191 189 190 187 186 190 183 175 153 155 159 160 156 157 165 177 188 170 205 190 203 214 217 208 246 271 292 265 218 200 194 213 215 220 220 214 209 213
192 191 188 186 188 189 191 191 197 200 196 185 168 155 166 157 167 172 163 172 179 199 186 213 218 233 222 232 224 215 231 239 246 250 240 240 221 215 211 216 219 218 217
188 186 182 179 184 187 191 195 201 200 194 184 179 175 177 170 170 180 182 184 192 204 196 209 215 215 237 246 258 246 241 246 242 247 246 250 245 231 220 220 220 217 220
Height
1516 1515 1513 1513 1512 1513 1514 1514 1515 1515 1516 1516 1518 1519 1520 1521 1523 1524 1526 1528 1530 1533 1535 1538 1540 1543 1545 1547 1549 1551 1553 1554 1555 1557 1559 1560 1561 1562 1563 1564 1566 1567 1567
1517 1515 1513 1512 1513 1513 1514 1515 1516 1516 1517 1518 1519 1520 1521 1522 1523 1525 1526 1529 1531 1533 1536 1539 1542 1544 1546 1548 1550 1552 1554 1555 1557 1558 1560 1561 1562 1563 1565 1566 1567 1568 1569
1517 1516 1513 1512 1513 1514 1514 1516 1517 1517 1518 1519 1520 1521 1522 1523 1524 1525 1527 1529 1531 1533 1536 1539 1542 1545 1547 1549 1551 1553 1555 1557 1558 1560 1561 1563 1563 1564 1566 1567 1568 1569 1570
1518 1517 1515 1513 1513 1514 1515 1517 1518 1518 1519 1520 1521 1522 1522 1523 1523 1524 1526 1529 1531 1534 1536 1539 1543 1546 1548 1550 1552 1554 1556 1558 1559 1561 1563 1565 1565 1566 1567 1568 1569 1570 1571
1519 1518 1516 1515 1515 1516 1517 1518 1519 1520 1520 1521 1522 1523 1523 1523 1524 1525 1527 1529 1532 1534 1537 1540 1543 1546 1549 1551 1553 1555 1557 1559 1560 1562 1565 1566 1566 1566 1567 1569 1569 1571 1572
1521 1520 1518 1517 1518 1518 1519 1520 1520 1521 1522 1522 1523 1523 1524 1524 1525 1526 1528 1530 1532 1535 1538 1541 1544 1547 1549 1551 1554 1556 1558 1559 1561 1564 1565 1566 1567 1567 1568 1569 1570 1571 1573
1523 1522 1521 1520 1520 1520 1521 1521 1522 1522 1522 1523 1524 1525 1525 1526 1526 1527 1528 1530 1533 1536 1539 1542 1544 1547 1550 1552 1554 1556 1558 1559 1563 1564 1565 1567 1567 1567 1568 1570 1571 1572 1573
1524 1524 1523 1522 1522 1522 1522 1523 1523 1523 1524 1524 1525 1526 1526 1527 1527 1528 1529 1531 1533 1536 1539 1542 1545 1547 1550 1552 1554 1557 1558 1560 1563 1565 1566 1566 1567 1567 1569 1570 1571 1572 1573
1525 1525 1525 1525 1524 1523 1524 1524 1524 1525 1525 1526 1526 1527 1527 1528 1528 1529 1530 1531 1534 1537 1540 1543 1545 1548 1550 1553 1555 1557 1559 1560 1564 1565 1566 1566 1566 1567 1569 1570 1571 1572 1573
1527 1527 1526 1526 1526 1526 1525 1525 1525 1526 1526 1527 1527 1528 1528 1528 1528 1529 1530 1532 1535 1538 1540 1543 1546 1548 1551 1553 1555 1557 1558 1560 1564 1565 1566 1566 1566 1567 1569 1570 1571 1572 1573
1528 1527 1527 1527 1527 1527 1527 1526 1527 1527 1527 1528 1528 1528 1529 1530 1530 1531 1531 1532 1535 1538 1541 1544 1546 1549 1551 1553 1555 1557 1558 1561 1563 1565 1565 1565 1566 1567 1568 1569 1571 1572 1573
1528 1529 1529 1528 1528 1528 1528 1527 1528 1528 1528 1529 1529 1529 1530 1530 1530 1531 1531 1532 1535 1539 1542 1545 1547 1550 1552 1554 1555 1557 1559 1561 1563 1564 1565 1565 1566 1567 1568 1569 1570 1571 1572
1530 1530 1530 1529 1529 1529 1528 1528 1528 1529 1529 1529 1529 1530 1530 1531 1531 1532 1534 1535 1537 1540 1543 1545 1548 1550 1552 1554 1555 1557 1559 1560 1562 1564 1564 1564 1565 1566 1567 1568 1569 1570 1571
1531 1531 1530 1530 1529 1528 1528 1528 1529 1530 1529 1530 1530 1531 1531 1532 1533 1534 1535 1537 1539 1541 1543 1546 1548 1550 1552 1553 1555 1556 1558 1560 1561 1563 1563 1564 1565 1565 1566 1568 1569 1569 1570
1532 1532 1531 1530 1530 1528 1527 1527 1530 1530 1531 1531 1531 1532 1533 1534 1535 1536 1537 1538 1541 1542 1544 1546 1548 1550 1551 1552 1554 1556 1557 1559 1560 1562 1563 1563 1564 1564 1565 1567 1567 1568 1569
1532 1532 1532 1531 1531 1530 1529 1529 1530 1532 1532 1533 1533 1533 1534 1535 1536 1537 1538 1539 1541 1543 1545 1546 1548 1550 1551 1553 1554 1555 1557 1558 1559 1561 1562 1562 1562 1563 1564 1565 1566 1567 1568
1533 1533 1533 1532 1532 1531 1531 1531 1532 1533 1533 1534 1534 1534 1535 1536 1537 1538 1539 1540 1542 1543 1545 1547 1548 1550 1551 1553 1554 1555 1556 1557 1559 1559 1560 1561 1561 1562 1563 1563 1564 1565 1566
1533 1533 1533 1533 1533 1532 1533 1533 1534 1535 1535 1535 1535 1536 1536 1536 1538 1539 1540 1541 1542 1544 1546 1547 1549 1550 1551 1552 1553 1554 1556 1556 1557 1558 1559 1559 1560 1561 1561 1562 1563 1564 1565
1533 1533 1533 1533 1533 1533 1533 1534 1535 1535 1535 1536 1537 1537 1537 1537 1538 1540 1541 1542 1543 1545 1546 1548 1549 1550 1551 1552 1553 1554 1555 1556 1556 1557 1557 1557 1558 1559 1560 1560 1561 1562 1563
1533 1533 1533 1533 1533 1534 1534 1535 1535 1536 1536 1537 1538 1538 1538 1538 1539 1541 1542 1543 1544 1545 1546 1548 1549 1550 1551 1552 1553 1554 1554 1555 1555 1555 1555 1556 1556 1557 1558 1559 1559 1560 1561
1532 1532 1533 1533 1533 1534 1534 1535 1536 1537 1537 1538 1538 1539 1539 1539 1540 1541 1543 1543 1544 1545 1546 1548 1549 1550 1551 1552 1553 1553 1554 1554 1554 1554 1554 1554 1555 1555 1556 1556 1558 1558 1558
1531 1531 1532 1533 1533 1533 1534 1534 1536 1537 1538 1539 1540 1539 1540 1540 1541 1542 1542 1543 1544 1545 1546 1547 1548 1550 1551 1551 1552 1552 1553 1554 1553 1553 1553 1553 1553 1554 1554 1555 1555 1555 1556
1530 1530 1531 1532 1532 1533 1534 1535 1536 1537 1539 1540 1540 1541 1541 1541 1542 1542 1543 1544 1544 1545 1546 1547 1548 1549 1550 1551 1552 1552 1552 1552 1552 1552 1552 1552 1551 1551 1552 1553 1553 1553 1554
1528 1529 1530 1531 1532 1532 1533 1534 1536 1537 1539 1540 1541 1541 1542 1542 1542 1543 1543 1543 1544 1546 1546 1547 1548 1549 1549 1550 1550 1550 1551 1551 1551 1551 1551 1551 1550 1549 1549 1550 1551 1551 1551
1527 1528 1529 1530 1531 1532 1533 1534 1535 1537 1538 1540 1540 1541 1542 1542 1543 1543 1543 1544 1544 1545 1546 1547 1547 1548 1549 1549 1550 1550 1550 1550 1550 1550 1550 1550 1549 1548 1548 1548 1549 1549 1550
1525 1526 1528 1528 1529 1530 1532 1533 1534 1536 1537 1538 1539 1540 1541 1542 1542 1543 1544 1544 1544 1545 1545 1546 1546 1547 1547 1547 1548 1549 1549 1549 1549 1549 1548 1547 1547 1547 1546 1546 1547 1547 1548